Location: Niagara
(43.2500°N, 79.0670°W)
Time: 09:20:16
(UTC-04:00)

ISS - Pass Details

Date: 14 October 2017
Orbit: 401 x 408 km, 51.6° (Epoch: 18 October)

Event Time Altitude Azimuth Distance (km) Brightness Sun altitude
Rises 19:25:10 0° 301° (WNW) 2,324 1.1 -10.0°
Reaches altitude 10° 19:27:15 10° 298° (WNW) 1,463 0.0 -10.4°
Maximum altitude 19:30:31 66° 216° (SW) 446 -3.5 -11.0°
Enters shadow 19:33:40 11° 134° (SE) 1,421 -1.5 -11.5°
